DB0NH-2 Weather Reports


time (UTC)temp
C
wind
direction
speed
KPH
gust
KPH
rain 1hr
cm
rain 24hr
cm
rain mn
cm
humidity
%
barometer
mb
20260507112607 10 305 1.6 4.8 0.03 1.40 1.40 92 1013.5
20260507111607 9 300 1.6 6.4 0.03 1.40 1.40 94 1013.3
20260507110607 8 332 1.6 3.2 0.03 1.40 1.40 94 1013.3
20260507105607 8 291 1.6 9.7 0.03 1.40 1.40 94 1013.4
20260507104607 9 296 3.2 9.7 0.00 1.37 1.37 91 1013.3
20260507103607 9 249 1.6 9.7 0.00 1.37 1.37 91 1013.1
20260507102607 9 292 1.6 9.7 0.00 1.37 1.37 93 1013.2
20260507101607 8 297 1.6 4.8 0.00 1.37 1.37 94 1013.0
20260507100607 8 299 1.6 9.7 0.00 1.37 1.37 93 1012.9
20260507095607 9 313 3.2 9.7 0.00 1.37 1.37 92 1012.7
20260507094607 9 315 1.6 4.8 0.00 1.37 1.37 93 1012.7
20260507093607 9 285 1.6 3.2 0.00 1.37 1.37 93 1012.6
20260507092607 8 294 0.0 6.4 0.00 1.37 1.37 94 1012.5
20260507091607 8 341 1.6 6.4 0.00 1.37 1.37 94 1012.3
20260507090607 9 306 0.0 6.4 0.00 1.37 1.37 94 1012.2
20260507085607 9 279 1.6 6.4 0.00 1.37 1.37 94 1012.1
20260507084607 9 286 1.6 4.8 0.00 1.37 1.37 96 1011.9
20260507083607 9 305 1.6 4.8 0.00 1.37 1.37 96 1011.9
20260507082607 9 292 1.6 4.8 0.00 1.37 1.37 96 1011.8
20260507081607 9 307 1.6 6.4 0.00 1.37 1.37 96 1011.7
20260507080607 9 305 1.6 9.7 0.00 1.37 1.37 97 1011.5
20260507075607 8 316 3.2 6.4 0.03 1.37 1.37 98 1011.4
20260507074607 8 305 0.0 4.8 0.03 1.37 1.37 98 1011.2
20260507073607 8 303 0.0 6.4 0.05 1.37 1.37 98 1011.2
20260507072607 8 299 0.0 6.4 0.05 1.37 1.37 98 1011.0
20260507071607 8 293 1.6 4.8 0.05 1.37 1.37 98 1011.0
20260507070607 8 282 1.6 9.7 0.05 1.37 1.37 98 1010.9
20260507065607 8 285 1.6 3.2 0.05 1.35 1.35 98 1010.9
20260507064607 8 290 1.6 4.8 0.05 1.35 1.35 98 1010.8
20260507063607 8 284 0.0 4.8 0.03 1.32 1.32 98 1010.7
20260507062607 8 283 1.6 4.8 0.03 1.32 1.32 98 1010.6
20260507061607 8 285 0.0 6.4 0.03 1.32 1.32 98 1010.5
20260507060607 8 307 1.6 4.8 0.03 1.32 1.32 98 1010.3
20260507055607 8 272 1.6 4.8 0.03 1.30 1.30 98 1010.1
20260507054607 8 283 1.6 4.8 0.03 1.30 1.30 98 1010.0
20260507053607 8 283 1.6 6.4 0.03 1.30 1.30 98 1009.9
20260507052607 8 298 1.6 4.8 0.03 1.30 1.30 98 1009.8
20260507051607 8 282 1.6 4.8 0.03 1.30 1.30 98 1009.7
20260507050607 8 306 1.6 4.8 0.03 1.30 1.30 98 1009.7
20260507045607 8 313 0.0 3.2 0.00 1.27 1.27 98 1009.6
20260507044607 8 282 0.0 4.8 0.00 1.27 1.27 98 1009.4
20260507043607 8 305 1.6 4.8 0.00 1.27 1.27 98 1009.2
20260507042607 8 292 1.6 9.7 0.00 1.27 1.27 98 1009.1
20260507041607 9 278 1.6 6.4 0.03 1.27 1.27 98 1009.0
20260507040607 9 274 1.6 3.2 0.03 1.27 1.27 98 1008.9
20260507035607 9 260 1.6 3.2 0.03 1.27 1.27 98 1008.7
20260507034607 9 273 0.0 3.2 0.03 1.27 1.27 98 1008.7
20260507033607 9 278 1.6 1.6 0.05 1.27 1.27 98 1008.6
20260507032607 9 298 1.6 6.4 0.08 1.27 1.27 98 1008.6
20260507031607 8 285 1.6 4.8 0.13 1.24 1.24 98 1008.4
20260507030607 8 292 1.6 4.8 0.20 1.24 1.24 98 1008.3
20260507025607 8 321 1.6 6.4 0.25 1.24 1.24 98 1008.4
20260507024607 8 293 1.6 4.8 0.28 1.24 1.24 98 1008.3
20260507023607 8 303 3.2 6.4 0.30 1.22 1.22 98 1008.3
20260507022607 9 295 3.2 4.8 0.33 1.19 1.19 98 1008.4
20260507021607 10 276 1.6 3.2 0.33 1.12 1.12 98 1008.3
20260507020607 10 297 1.6 4.8 0.38 1.04 1.04 98 1008.3
20260507015607 9 272 1.6 6.4 0.38 0.99 0.99 98 1008.3
20260507014607 9 273 3.2 6.4 0.36 0.97 0.97 98 1008.2
20260507013607 9 268 1.6 4.8 0.36 0.91 0.91 98 1008.1
20260507012607 9 282 1.6 4.8 0.36 0.86 0.86 97 1008.0
20260507011607 9 247 3.2 11.3 0.43 0.89 0.79 97 1007.8
20260507010607 10 283 3.2 9.7 0.41 0.76 0.66 97 1007.9
20260507005607 10 264 3.2 9.7 0.41 0.71 0.61 97 1007.9
20260507004607 10 268 3.2 6.4 0.46 0.71 0.61 97 1007.8
20260507003607 10 263 3.2 14.5 0.43 0.66 0.56 97 1007.9
20260507002607 10 237 3.2 9.7 0.38 0.61 0.51 97 1007.9
20260507001607 10 261 0.0 3.2 0.25 0.46 0.36 97 1007.9
20260507000607 10 268 1.6 6.4 0.15 0.36 0.25 97 1007.9
20260506235607 10 278 1.6 3.2 0.10 0.30 0.20 97 1007.9
20260506234607 10 267 3.2 9.7 0.05 0.25 0.15 96 1007.9
20260506233607 10 279 3.2 11.3 0.10 0.23 0.13 96 1007.8
20260506232607 10 283 1.6 9.7 0.13 0.23 0.13 96 1007.8
20260506231607 10 278 1.6 6.4 0.10 0.20 0.10 96 1007.9
20260506230607 10 251 1.6 6.4 0.10 0.20 0.10 95 1007.8
20260506225607 11 323 1.6 4.8 0.10 0.20 0.10 94 1007.9
20260506224607 11 270 1.6 4.8 0.10 0.20 0.10 93 1007.8
20260506223607 11 276 1.6 3.2 0.03 0.13 0.03 92 1007.8
20260506222607 11 281 1.6 4.8 0.00 0.10 0.00 91 1007.7
20260506221607 11 264 1.6 3.2 0.00 0.10 0.00 90 1007.7
20260506220607 11 270 1.6 3.2 0.00 0.10 0.00 90 1007.6
20260506215607 11 262 1.6 6.4 0.00 0.10 0.10 89 1007.6
20260506214607 11 279 1.6 6.4 0.00 0.10 0.10 89 1007.5
20260506213607 11 275 1.6 4.8 0.00 0.10 0.10 88 1007.4
20260506212607 11 299 1.6 4.8 0.00 0.10 0.10 88 1007.3
20260506211607 12 270 1.6 4.8 0.00 0.10 0.10 88 1007.4
20260506210607 12 272 1.6 4.8 0.00 0.10 0.10 87 1007.3
20260506205607 12 294 1.6 4.8 0.00 0.10 0.10 87 1007.2
20260506204608 12 271 1.6 9.7 0.00 0.10 0.10 87 1007.2
20260506203607 12 286 1.6 6.4 0.00 0.10 0.10 86 1007.2
20260506202607 12 283 1.6 4.8 0.00 0.10 0.10 85 1007.0
20260506201607 12 312 0.0 4.8 0.00 0.10 0.10 84 1007.0
20260506200607 12 319 1.6 3.2 0.00 0.10 0.10 83 1006.9
20260506195608 12 269 0.0 3.2 0.00 0.10 0.10 82 1006.9
20260506194608 12 273 1.6 3.2 0.00 0.10 0.10 82 1006.8
20260506193608 12 271 1.6 4.8 0.00 0.13 0.10 81 1006.8
20260506192608 12 290 0.0 1.6 0.00 0.15 0.10 80 1006.6
20260506191608 13 287 0.0 3.2 0.00 0.15 0.10 79 1006.6
20260506190608 13 289 0.0 3.2 0.00 0.15 0.10 78 1006.4
20260506185608 13 270 0.0 4.8 0.00 0.18 0.10 77 1006.3
20260506184608 13 288 1.6 4.8 0.00 0.18 0.10 76 1006.1
20260506183608 13 275 1.6 1.6 0.00 0.18 0.10 77 1005.9
20260506182608 13 271 1.6 3.2 0.00 0.18 0.10 78 1005.8
20260506181608 13 269 0.0 1.6 0.00 0.18 0.10 80 1005.7
20260506180608 14 263 0.0 1.6 0.00 0.20 0.10 78 1005.8
20260506175608 14 260 0.0 1.6 0.00 0.20 0.10 77 1005.5
20260506174608 15 0.0 1.6 0.00 0.20 0.10 76 1005.6
20260506173608 15 252 0.0 4.8 0.00 0.20 0.10 76 1005.6
20260506172608 15 264 0.0 1.6 0.00 0.20 0.10 74 1005.5
20260506171608 16 0.0 0.0 0.00 0.23 0.10 74 1005.3
20260506170608 16 0.0 1.6 0.00 0.28 0.10 74 1005.2
20260506165608 15 0.0 1.6 0.00 0.36 0.10 74 1005.3
20260506164608 15 302 0.0 3.2 0.00 0.46 0.10 73 1005.3
20260506163608 16 315 0.0 3.2 0.00 0.61 0.10 72 1005.3
20260506162608 16 237 0.0 4.8 0.00 0.71 0.10 71 1005.4
20260506161608 16 237 0.0 3.2 0.00 0.76 0.10 71 1005.4
20260506160608 16 239 0.0 3.2 0.00 0.79 0.10 69 1005.6
20260506155608 16 0.0 1.6 0.00 0.81 0.10 70 1005.7
20260506154608 15 293 1.6 3.2 0.00 0.81 0.10 69 1005.7
20260506153608 16 266 1.6 3.2 0.00 0.81 0.10 67 1005.7
20260506152608 16 284 1.6 3.2 0.00 0.81 0.10 63 1005.8
20260506151608 16 284 0.0 1.6 0.00 0.81 0.10 62 1005.7
20260506150608 16 285 0.0 1.6 0.00 0.81 0.10 62 1005.5
20260506145608 16 252 3.2 9.7 0.00 0.81 0.10 63 1005.6
20260506144608 16 246 4.8 9.7 0.00 0.81 0.10 62 1005.5
20260506143608 16 250 3.2 9.7 0.00 0.81 0.10 60 1005.5
20260506142608 16 246 4.8 11.3 0.00 0.81 0.10 63 1005.5
20260506141608 17 234 6.4 12.9 0.00 0.81 0.10 60 1005.7
20260506140608 16 266 3.2 9.7 0.00 0.81 0.10 62 1005.7
20260506135608 16 245 8.0 14.5 0.00 0.81 0.10 61 1005.8
20260506134608 17 233 11.3 17.7 0.00 0.81 0.10 61 1005.7
20260506133608 16 239 8.0 16.1 0.00 0.81 0.10 63 1005.8
20260506132608 17 217 9.7 16.1 0.00 0.81 0.10 62 1005.7
20260506131608 17 253 1.6 4.8 0.00 0.81 0.10 61 1005.8
20260506130608 17 242 6.4 11.3 0.00 0.81 0.10 60 1005.8
20260506125608 16 241 8.0 14.5 0.00 0.81 0.10 60 1005.9
20260506124607 16 233 8.0 14.5 0.00 0.81 0.10 61 1006.0
20260506123608 17 252 3.2 11.3 0.00 0.81 0.10 60 1006.0
20260506122608 17 251 4.8 12.9 0.00 0.81 0.10 62 1006.1
20260506121608 16 265 1.6 6.4 0.00 0.81 0.10 62 1006.1
20260506120607 16 270 3.2 12.9 0.00 0.81 0.10 63 1006.1
20260506115607 16 246 3.2 11.3 0.00 0.81 0.10 66 1006.3
20260506114607 16 254 3.2 11.3 0.00 0.81 0.10 68 1006.2
20260506113608 17 244 4.8 16.1 0.00 0.81 0.10 66 1006.3